Weather History for Flagstaff, AZ

Change the Weather History Date:

Sunday, March 3, 2013

  Actual Average Record
Temperature  
Mean Temperature 40 °F 35 °F  
Max Temperature 53 °F 48 °F 66 °F (1910)
Min Temperature 27 °F 22 °F -9 °F (1915)
Degree Days  
Heating Degree Days 25 30  
Month to date heating degree days 78 91  
Since 1 July heating degree days 4946 4930  
Cooling Degree Days 0 0  
Month to date cooling degree days 0 0  
Year to date cooling degree days 0 0  
Moisture  
Dew Point 20 °F    
Average Humidity 47    
Maximum Humidity 75    
Minimum Humidity 19    
Precipitation  
Precipitation 0.00 in 0.08 in 2.11 in (1938)
Month to date precipitation 0.00 0.23  
Year to date precipitation 3.50 4.44  
Snow  
Snow 0.00 in 0.70 in 11.90 in (1976)
Month to date snowfall 0.0 2.2  
Since 1 July snowfall 53.1 75.4  
Snow Depth 0.00 in    
Sea Level Pressure  
Sea Level Pressure 30.00 in    
Wind  
Wind Speed 11 mph (WSW)    
Max Wind Speed 28 mph    
Max Gust Speed 40 mph    
Visibility 10 miles    
Events      
T = Trace of Precipitation, MM = Missing Value Source: NWS Daily Summary

Daily Weather History Graph

Daily Weather History Graph

Search for Another Location

Airport:

Trip Planner

Search our weather history database for the weather conditions in past years. The results will help you decide how hot, cold, wet, or windy it might be!

Date:

Astronomy

Mar. 03, 2013 Rise Set
Actual Time 6:53 AM MST 6:24 PM MST
Civil Twilight 6:27 AM MST 6:49 PM MST
Nautical Twilight 5:58 AM MST 7:19 PM MST
Astronomical Twilight 5:29 AM MST 7:48 PM MST
Moon No Moon Rise 10:26 AM MST (3/3)
Length of Visible Light 12h 21m
Length of Day
11h 31m
Waning Gibbous, 63% of the Moon is Illuminated
Mar 3
Waning Gibbous
Mar 4
Last Quarter
Mar 11
New
Mar 19
First Quarter
Mar 27
Full

Hourly Weather History & Observations

Time (MST) Temp. Windchill Dew Point Humidity Pressure Visibility Wind Dir Wind Speed Gust Speed Precip Events Conditions
12:57 AM 32.0 °F 27.5 °F 21.9 °F 66% 30.13 in 10.0 mi West 4.6 mph - N/A   Clear
1:57 AM 34.0 °F 31.0 °F 21.9 °F 61% 30.09 in 10.0 mi Variable 3.5 mph - N/A   Clear
2:57 AM 33.1 °F 30.0 °F 21.9 °F 64% 30.06 in 10.0 mi WSW 3.5 mph - N/A   Clear
3:57 AM 30.0 °F 26.5 °F 21.0 °F 69% 30.05 in 10.0 mi WNW 3.5 mph - N/A   Clear
4:57 AM 28.9 °F - 21.0 °F 72% 30.05 in 10.0 mi Calm Calm - N/A   Clear
5:57 AM 28.0 °F - 21.0 °F 75% 30.05 in 10.0 mi Calm Calm - N/A   Clear
6:57 AM 28.0 °F 24.2 °F 21.9 °F 78% 30.08 in 10.0 mi SW 3.5 mph - N/A   Clear
7:57 AM 35.1 °F - 21.0 °F 57% 30.07 in 10.0 mi Calm Calm - N/A   Clear
8:57 AM 45.0 °F 40.1 °F 19.9 °F 37% 30.06 in 10.0 mi WSW 9.2 mph 18.4 mph N/A   Clear
9:57 AM 48.0 °F - 19.0 °F 32% 30.06 in 10.0 mi WSW 16.1 mph 24.2 mph N/A   Mostly Cloudy
10:57 AM 50.0 °F - 14.0 °F 24% 30.03 in 10.0 mi WSW 19.6 mph 29.9 mph N/A   Clear
11:57 AM 50.0 °F - 12.9 °F 23% 30.02 in 10.0 mi WSW 18.4 mph 26.5 mph N/A   Scattered Clouds
12:57 PM 53.1 °F - 12.0 °F 20% 29.96 in 10.0 mi WSW 19.6 mph 33.4 mph N/A   Scattered Clouds
1:57 PM 48.0 °F - 23.0 °F 37% 29.96 in 10.0 mi SW 23.0 mph - N/A   Overcast
2:57 PM 51.1 °F - 24.1 °F 35% 29.93 in 10.0 mi SW 21.9 mph 29.9 mph N/A   Scattered Clouds
3:57 PM 50.0 °F - 24.1 °F 36% 29.94 in 10.0 mi SW 21.9 mph 28.8 mph N/A   Partly Cloudy
4:57 PM 46.9 °F - 24.1 °F 41% 29.97 in 10.0 mi SW 17.3 mph - N/A   Overcast
5:57 PM 46.0 °F 39.9 °F 21.9 °F 39% 29.97 in 10.0 mi SW 13.8 mph - N/A   Overcast
6:57 PM 44.1 °F 37.1 °F 19.9 °F 38% 29.98 in 10.0 mi SW 15.0 mph - N/A   Overcast
7:57 PM 41.0 °F 34.7 °F 19.9 °F 43% 29.95 in 10.0 mi SW 10.4 mph - N/A   Scattered Clouds
8:57 PM 42.1 °F 36.6 °F 21.0 °F 43% 29.90 in 10.0 mi SW 9.2 mph - N/A   Overcast
9:57 PM 41.0 °F 34.3 °F 21.0 °F 45% 29.89 in 10.0 mi SW 11.5 mph - N/A   Overcast
10:57 PM 39.0 °F 31.4 °F 21.9 °F 50% 29.87 in 10.0 mi SW 12.7 mph - N/A   Mostly Cloudy
11:57 PM 39.0 °F 30.6 °F 21.0 °F 49% 29.86 in 10.0 mi SW 15.0 mph - N/A   Partly Cloudy